Content
SEND FEEDBACK

Daily
Averages
Monthly
Summary
United States of America

ASHEVILLE, NORTH CAROLINA


Home > North America > United States > North Carolina
Elevation: 682 meters     Latitude: 35 36N     Longitude: 082 32W

WEATHER
 
SELECT A DAY
Number of Records: 223,052;   Date Range: 1/1/95 - 4/22/14
 
SHARE

PRINT THIS DATA

[ ← Previous Day ]
WEATHER ALMANAC - 11 FEBRUARY, 2013
[ Next Day → ]
[ °F ]   °C
Weather ElementAverageHighLow
Temperature10.6 °C14.4 °C (12:54 pm)8 °C (1:26 am)
Dewpoint7.6 °C11.7 °C (12:54 pm)-1.1 °C (10:54 pm)
Humidity83.7 %100 % (2:04 am)39 % (4:54 pm)
Barometer1017.3 hPa1020 hPa (1:26 am)1015.2 hPa (12:54 pm)
Wind Speed7.7 km/h20.4 km/h (2:54 am)
Wind Gust29.6 km/h (4:54 pm)
Weather ElementAverage
Visibility14.5 km
Wind DirectionSSE (164.8 °)

Weather ElementTotal
Precipitation1.52 mm
Heating Degree Days7.2 (Base 18.3)
Growing Degree Days1.2 (Base 10)
Averaged from 40 records on 11 February, 2013
WEATHER CONDITIONS BREAKOUT
WIND DIRECTION BREAKOUT
WEATHER BY HOUR - 11 FEBRUARY, 2013
[ °F ]   °C
Local TimeTemperatureDewpointHumidityBarometerVisibilityWind DirectionWind SpeedGust SpeedPrecipitationEventsConditions
1:26 AM8 °C7 °C93 %1020 hPa16.1 kmSSE (150°)7.4 km/h0 mmRainLight Rain
1:54 AM8.3 °C7.8 °C97 %1019.3 hPa16.1 kmSouth (170°)13 km/h0 mmOvercast
2:04 AM8 °C8 °C100 %1019.6 hPa16.1 kmSSE (160°)13 km/hOvercast
2:54 AM8.3 °C7.8 °C97 %1017.9 hPa12.9 kmSouth (170°)20.4 km/h0 mmOvercast
3:51 AM9 °C8 °C93 %1018.6 hPa4 kmSSE (150°)9.3 km/h0.25 mmOvercast
3:54 AM8.9 °C8.3 °C96 %1017.9 hPa4 kmSSE (150°)9.3 km/h0.25 mmOvercast
4:01 AM9 °C8 °C93 %1018.3 hPa4.8 kmSSE (150°)11.1 km/hOvercast
4:09 AM9 °C8 °C93 %1017.6 hPa4.8 kmSE (140°)11.1 km/hOvercast
4:19 AM9 °C8 °C93 %1017.9 hPa6.4 kmSSE (150°)11.1 km/hOvercast
4:54 AM8.9 °C8.3 °C96 %1018.3 hPa14.5 kmSSE (160°)13 km/h0 mmRainLight Rain
5:10 AM9 °C9 °C100 %1019 hPa14.5 kmSSE (160°)9.3 km/h0.25 mmRainLight Rain
5:54 AM8.9 °C8.3 °C96 %1017.9 hPa16.1 kmSSE (150°)13 km/h0.51 mmOvercast
6:54 AM9.4 °C8.9 °C97 %1016.9 hPa16.1 kmSouth (190°)14.8 km/h0.25 mmMostly Cloudy
7:24 AM9 °C9 °C100 %1017.9 hPa16.1 kmCalmMostly Cloudy
7:54 AM9.4 °C8.9 °C97 %1017.9 hPa16.1 kmSE (130°)5.6 km/hOvercast
8:24 AM9 °C9 °C100 %1018.3 hPa16.1 kmCalmMostly Cloudy
8:31 AM10 °C9 °C94 %1018.3 hPa16.1 kmSE (140°)5.6 km/hMostly Cloudy
8:46 AM11 °C9 °C88 %1017.9 hPa16.1 kmESE (110°)7.4 km/hOvercast
8:54 AM10.6 °C9.4 °C92 %1017.9 hPa16.1 kmCalmMostly Cloudy
9:02 AM11 °C9 °C88 %1017.9 hPa16.1 kmSE (130°)7.4 km/hOvercast
9:27 AM12 °C10 °C88 %1017.6 hPa16.1 kmSouth (170°)9.3 km/hMostly Cloudy
9:54 AM11.7 °C10.6 °C93 %1017.3 hPa16.1 kmCalmOvercast
10:06 AM12 °C11 °C94 %1017.3 hPa16.1 kmSouth (190°)11.1 km/hMostly Cloudy
10:54 AM13.3 °C11.1 °C87 %1016.9 hPa16.1 kmCalmMostly Cloudy
11:06 AM13 °C11 °C88 %1017.6 hPa16.1 kmSSW (200°)5.6 km/hMostly Cloudy
11:54 AM13.9 °C11.1 °C83 %1016.9 hPa16.1 kmNNW (340°)5.6 km/hOvercast
12:01 PM14 °C11 °C82 %1017.3 hPa16.1 kmCalmMostly Cloudy
12:54 PM14.4 °C11.7 °C84 %1015.2 hPa16.1 kmNNW (330°)5.6 km/hMostly Cloudy
1:43 PM13 °C11 °C88 %1017.3 hPa16.1 kmNorth (350°)16.7 km/hOvercast
1:54 PM13.3 °C10.6 °C84 %1015.9 hPa16.1 kmNorth (350°)14.8 km/hOvercast
2:54 PM13.9 °C10 °C77 %1015.2 hPa16.1 kmCalmClear
3:54 PM13.9 °C10 °C77 %1015.2 hPa16.1 kmCalmClear
4:54 PM13.9 °C0 °C39 %1015.2 hPa16.1 kmNW (310°)11.1 km/h29.6 km/hClear
5:54 PM12.2 °C1.7 °C49 %1015.6 hPa16.1 kmNorth (360°)7.4 km/hClear
6:54 PM10.6 °C2.8 °C59 %1016.3 hPa16.1 kmNorth (360°)5.6 km/hClear
7:54 PM10 °C2.2 °C59 %1016.6 hPa16.1 kmNorth (360°)5.6 km/hClear
8:54 PM9.4 °C1.1 °C56 %1016.9 hPa16.1 kmNorth (350°)7.4 km/hClear
9:54 PM8.9 °C0 °C54 %1017.3 hPa16.1 kmCalmClear
10:54 PM8.9 °C-1.1 °C50 %1016.9 hPa16.1 kmNorth (10°)9.3 km/hClear
11:54 PM8.3 °C-1.1 °C52 %1016.6 hPa16.1 kmNorth (350°)11.1 km/hClear
Hourly data recorded from KAVL, located 18.33 kilometers away from Asheville, North Carolina







STORIES FROM OUR PARTNERS